0 IRIDIUM 7 1 24793U 97020B 24109.68723165 .00000915 00000-0 31363-3 0 9991 2 24793 86.4003 354.7529 0002428 86.4756 273.6718 14.35159904410993 0 IRIDIUM 5 1 24795U 97020D 24109.94972551 .00011996 00000-0 11665-2 0 9990 2 24795 86.3874 278.0586 0122493 211.9675 147.4080 14.86908037422292 0 IRIDIUM 4 1 24796U 97020E 24109.73235062 .00001004 00000-0 33855-3 0 9992 2 24796 86.3995 351.8955 0002229 89.8216 270.3236 14.36081957411536 0 IRIDIUM 914 1 24836U 97030A 24109.78306518 .00001181 00000-0 36945-3 0 9997 2 24836 86.3985 1.7167 0002736 127.8415 232.3032 14.39929231546038 0 IRIDIUM 16 1 24841U 97030F 24110.29830822 .00001366 00000-0 44707-3 0 9991 2 24841 86.4087 23.3103 0003576 51.7659 308.3860 14.37822512406339 0 IRIDIUM 911 1 24842U 97030G 24110.29972170 .00001731 00000-0 47562-3 0 9993 2 24842 86.4514 22.4869 0016533 72.7776 287.5234 14.46434428413767 0 IRIDIUM 17 1 24870U 97034B 24109.88211118 .00001490 00000-0 49752-3 0 9994 2 24870 86.3971 53.0893 0001944 41.1462 318.9881 14.36907924402639 0 IRIDIUM 920 1 24871U 97034C 24109.83538587 .00001382 00000-0 42679-3 0 9993 2 24871 86.4019 33.3290 0013293 48.5009 311.7329 14.40632583405467 0 IRIDIUM 921 1 24873U 97034E 24109.82647601 .00038288 00000-0 11189-2 0 9998 2 24873 86.3813 317.4280 0005885 108.5164 251.6727 15.35115890466342 0 IRIDIUM 26 1 24903U 97043A 24109.90466369 .00001240 00000-0 41811-3 0 9995 2 24903 86.3905 288.6461 0002275 87.6835 272.4623 14.36286795395823 0 IRIDIUM 22 1 24907U 97043E 24110.54200461 .00001252 00000-0 43168-3 0 9990 2 24907 86.3909 291.5714 0002075 91.0231 269.1203 14.35180566395984 0 IRIDIUM 29 1 24944U 97051A 24110.14503472 .00000988 00000-0 33620-3 0 9991 2 24944 86.3941 321.6757 0002018 94.6257 265.5170 14.35636056392639 0 IRIDIUM 33 1 24946U 97051C 24109.55865949 .00000639 00000-0 22058-3 0 9992 2 24946 86.3855 321.1772 0009037 36.7226 323.4587 14.34312602391876 0 IRIDIUM 28 1 24948U 97051E 24110.53628834 .00001050 00000-0 35081-3 0 9992 2 24948 86.3941 319.2695 0002404 79.6991 280.4477 14.36586232393070 0 IRIDIUM 36 1 24967U 97056C 24110.20513971 .00001164 00000-0 38842-3 0 9991 2 24967 86.4004 351.0593 0002022 82.6566 277.4861 14.36732026391324 0 IRIDIUM 39 1 25042U 97069D 24109.85230470 .00001931 00000-0 51588-3 0 9993 2 25042 86.3961 32.9324 0016131 285.1129 74.8289 14.47845401387533 0 IRIDIUM 38 1 25043U 97069E 24109.88311296 .00001548 00000-0 51402-3 0 9992 2 25043 86.3975 51.5684 0003896 69.9901 290.1716 14.37176998384997 0 IRIDIUM 42 1 25077U 97077A 24110.21438362 .00001441 00000-0 49454-3 0 9997 2 25077 86.3971 57.0805 0002865 81.8303 278.3218 14.35484974380355 0 IRIDIUM 44 1 25078U 97077B 24109.84517957 .00001456 00000-0 46278-3 0 9990 2 25078 86.3991 40.2999 0002581 41.1990 318.9403 14.39313865382647 0 IRIDIUM 45 1 25104U 97082A 24109.87958032 .00027381 00000-0 15702-2 0 9994 2 25104 86.3733 250.0485 0165768 95.1898 266.8276 15.01449634387957 0 IRIDIUM 24 1 25105U 97082B 24110.49264175 .00001773 00000-0 54462-3 0 9997 2 25105 86.3881 259.7135 0012803 45.0287 315.1948 14.41081852382425 0 IRIDIUM 51 1 25262U 98018A 24110.47501467 .00029337 00000-0 14093-2 0 9998 2 25262 86.3954 259.7597 0150784 39.6631 321.5517 15.09121890382778 0 IRIDIUM 57 1 25273U 98019B 24110.58114732 .00000934 00000-0 32026-3 0 9997 2 25273 86.3946 322.6875 0002131 87.8249 272.3192 14.35156463364226 0 IRIDIUM 63 1 25286U 98021B 24109.93018722 .00001308 00000-0 44659-3 0 9994 2 25286 86.3954 259.8296 0002001 97.8501 262.2922 14.35687676362957 0 IRIDIUM 69 1 25319U 98026A 24109.96394484 .00001655 00000-0 52078-3 0 9990 2 25319 86.3931 274.3920 0002535 32.4202 327.7152 14.39895335362230 0 IRIDIUM 71 1 25320U 98026B 24109.90751063 .00001470 00000-0 45887-3 0 9991 2 25320 86.3933 269.1850 0003897 68.8120 291.3495 14.40217912362509 0 IRIDIUM 73 1 25344U 98032C 24109.83599788 .00001871 00000-0 47411-3 0 9990 2 25344 86.4456 226.7248 0002035 77.9840 282.1592 14.50428056369023 0 IRIDIUM 82 1 25467U 98051A 24110.07149262 .00023640 00000-0 12301-2 0 9990 2 25467 86.3750 313.8008 0134006 77.9729 283.6490 15.08349582359579 0 IRIDIUM 2 1 25527U 98066A 24109.69144970 .00144474 00000-0 13304-2 0 9993 2 25527 85.5091 341.8282 0004002 136.2447 223.9138 15.67188720398544 0 IRIDIUM 106 1 41917U 17003A 24109.38563118 .00000893 00000-0 31182-3 0 9992 2 41917 86.3989 58.5709 0005222 49.1649 310.9999 14.34219219380002 0 IRIDIUM 103 1 41918U 17003B 24110.21015912 .00000199 00000-0 64120-4 0 9999 2 41918 86.3973 58.1316 0002600 86.3030 273.8463 14.34220907380155 0 IRIDIUM 109 1 41919U 17003C 24109.93742980 .00000964 00000-0 33697-3 0 9993 2 41919 86.3974 58.2925 0002390 90.8146 269.3324 14.34221745380076 0 IRIDIUM 102 1 41920U 17003D 24110.39409421 .00000785 00000-0 27326-3 0 9990 2 41920 86.3972 58.0419 0002278 87.4603 272.6854 14.34220407380223 0 IRIDIUM 105 1 41921U 17003E 24109.31827693 .00000111 00000-0 32472-4 0 9998 2 41921 86.4023 26.9230 0002233 86.1247 274.0204 14.34211248381924 0 IRIDIUM 104 1 41922U 17003F 24110.33701594 -.00001126 00000-0 -40918-3 0 9996 2 41922 86.3970 58.0960 0002201 84.1662 275.9784 14.34218089380208 0 IRIDIUM 114 1 41923U 17003G 24109.92474506 .00000157 00000-0 48974-4 0 9992 2 41923 86.3973 58.2548 0002082 80.6345 279.5086 14.34219255380146 0 IRIDIUM 108 1 41924U 17003H 24109.32511905 .00000053 00000-0 12007-4 0 9995 2 41924 86.4018 26.8484 0002154 80.0506 280.0932 14.34218292381891 0 IRIDIUM 112 1 41925U 17003J 24109.91205183 .00000675 00000-0 23396-3 0 9991 2 41925 86.3969 58.1384 0002317 91.5779 268.5683 14.34224702380170 0 IRIDIUM 111 1 41926U 17003K 24109.89937561 .00000344 00000-0 11586-3 0 9992 2 41926 86.3971 58.1969 0002544 86.2367 273.9120 14.34220374380121 0 IRIDIUM 113 1 42803U 17039A 24109.94911500 .00000314 00000-0 10508-3 0 9997 2 42803 86.3921 291.9635 0002314 92.6059 267.5401 14.34222030358062 0 IRIDIUM 123 1 42804U 17039B 24110.54873532 .00000329 00000-0 11038-3 0 9993 2 42804 86.3955 323.2293 0002294 87.3363 272.8095 14.34218991356916 0 IRIDIUM 120 1 42805U 17039C 24110.50091668 .00000183 00000-0 58125-4 0 9999 2 42805 86.3909 291.6170 0002093 88.9336 271.2099 14.34221742358133 0 IRIDIUM 115 1 42806U 17039D 24110.06429751 .00000439 00000-0 12438-3 0 9999 2 42806 86.4447 291.8157 0002337 93.4722 266.6746 14.43278091360443 0 IRIDIUM 118 1 42807U 17039E 24109.67345744 .00000275 00000-0 91147-4 0 9997 2 42807 86.3956 323.5969 0002080 90.4751 269.6683 14.34219428356780 0 IRIDIUM 117 1 42808U 17039F 24109.62271550 .00000200 00000-0 64496-4 0 9991 2 42808 86.3956 323.5832 0002353 85.9051 274.2414 14.34219666356817 0 IRIDIUM 126 1 42809U 17039G 24110.55507887 .00000073 00000-0 18839-4 0 9999 2 42809 86.3955 323.2315 0002327 91.6186 268.5276 14.34218292356922 0 IRIDIUM 124 1 42810U 17039H 24110.41409717 .00000635 00000-0 18276-3 0 9997 2 42810 86.4463 259.9858 0002016 86.4109 273.7322 14.43279279361342 0 IRIDIUM 128 1 42811U 17039J 24109.70859339 .00000458 00000-0 15635-3 0 9996 2 42811 86.4011 355.0960 0002372 84.0626 276.0840 14.34216654356823 0 IRIDIUM 121 1 42812U 17039K 24110.57410553 .00000149 00000-0 46088-4 0 9999 2 42812 86.3956 323.2455 0002117 85.8687 274.2750 14.34219038356919 0 IRIDIUM 133 1 42955U 17061A 24110.22868628 .00000262 00000-0 86543-4 0 9990 2 42955 86.4012 354.9771 0002217 89.6215 270.5235 14.34218903341699 0 IRIDIUM 100 1 42956U 17061B 24109.66419471 .00000476 00000-0 16286-3 0 9998 2 42956 86.4011 355.1501 0002250 86.4641 273.6812 14.34220814341619 0 IRIDIUM 122 1 42957U 17061C 24109.70225170 .00000079 00000-0 21128-4 0 9996 2 42957 86.4012 355.1325 0002255 84.4304 275.7148 14.34218585341622 0 IRIDIUM 129 1 42958U 17061D 24110.14623500 -.00000236 00000-0 -91225-4 0 9998 2 42958 86.4006 355.0053 0002253 86.4289 273.7164 14.34216890341707 0 IRIDIUM 119 1 42959U 17061E 24109.76567646 .00000023 00000-0 12396-5 0 9998 2 42959 86.4015 355.1570 0002423 84.2465 275.9007 14.34216807341667 0 IRIDIUM 107 1 42960U 17061F 24109.71494084 -.00001235 00000-0 -44823-3 0 9996 2 42960 86.4007 355.1931 0002367 78.4301 281.7160 14.34216020341664 0 IRIDIUM 132 1 42961U 17061G 24110.13988959 .00000279 00000-0 92527-4 0 9994 2 42961 86.4013 355.0014 0002289 80.2349 279.9105 14.34219314341723 0 IRIDIUM 136 1 42962U 17061H 24109.68322535 .00000042 00000-0 79220-5 0 9999 2 42962 86.4013 355.1953 0002419 89.1240 271.0233 14.34218119341671 0 IRIDIUM 139 1 42963U 17061J 24109.68956114 .00000190 00000-0 60672-4 0 9990 2 42963 86.4016 355.2419 0002362 79.7111 280.4351 14.34217933341681 0 IRIDIUM 125 1 42964U 17061K 24110.09548819 .00000176 00000-0 55825-4 0 9995 2 42964 86.4022 355.1184 0002581 87.8883 272.2608 14.34221248341752 0 IRIDIUM 135 1 43070U 17083A 24109.93009943 .00000324 00000-0 10849-3 0 9990 2 43070 86.3913 291.8588 0001703 89.0182 271.1209 14.34219191331022 0 IRIDIUM 138 1 43071U 17083B 24110.51361732 .00000347 00000-0 11698-3 0 9992 2 43071 86.3903 291.3390 0002374 90.3344 269.8123 14.34220964331094 0 IRIDIUM 116 1 43072U 17083C 24109.99351148 .00000296 00000-0 98553-4 0 9992 2 43072 86.3913 291.8280 0001919 89.5716 270.5700 14.34221538331050 0 IRIDIUM 130 1 43073U 17083D 24110.51995865 .00000339 00000-0 11405-3 0 9991 2 43073 86.3921 291.8064 0002205 87.8234 272.3214 14.34220148331073 0 IRIDIUM 151 1 43074U 17083E 24109.93643659 .00000322 00000-0 10776-3 0 9999 2 43074 86.3916 291.8917 0002099 101.9510 258.1921 14.34220201331012 0 IRIDIUM 134 1 43075U 17083F 24109.90472150 .00000327 00000-0 10970-3 0 9994 2 43075 86.3916 291.9023 0002162 85.7660 274.3783 14.34220134330973 0 IRIDIUM 137 1 43076U 17083G 24110.05694664 .00000314 00000-0 10507-3 0 9991 2 43076 86.3918 291.9156 0001709 98.6729 261.4661 14.34219771331066 0 IRIDIUM 141 1 43077U 17083H 24109.98082338 .00000068 00000-0 17308-4 0 9994 2 43077 86.3912 291.8224 0002191 93.6925 266.4521 14.34217635331051 0 IRIDIUM 153 1 43078U 17083J 24110.49114631 .00001091 00000-0 38244-3 0 9993 2 43078 86.3939 260.0402 0002494 94.8203 265.3278 14.34222839332235 0 IRIDIUM 131 1 43079U 17083K 24110.03792121 .00000316 00000-0 10559-3 0 9998 2 43079 86.3918 291.9323 0002017 94.8435 265.2991 14.34219756330992 0 IRIDIUM 144 1 43249U 18030A 24110.49749322 .00000128 00000-0 38471-4 0 9990 2 43249 86.3938 259.9864 0002041 87.6854 272.4576 14.34216108317115 0 IRIDIUM 149 1 43250U 18030B 24110.50383047 .00000733 00000-0 25453-3 0 9999 2 43250 86.3935 259.9595 0001982 92.2700 267.8722 14.34216154317112 0 IRIDIUM 157 1 43251U 18030C 24110.45309217 .00000738 00000-0 25645-3 0 9999 2 43251 86.3934 260.0162 0002351 95.1776 264.9688 14.34217587317087 0 IRIDIUM 140 1 43252U 18030D 24110.47211691 .00000975 00000-0 34105-3 0 9994 2 43252 86.3938 260.0234 0002092 80.7063 279.4369 14.34217163317147 0 IRIDIUM 145 1 43253U 18030E 24110.45943257 .00000906 00000-0 31640-3 0 9998 2 43253 86.3933 260.0019 0001885 88.1366 272.0046 14.34216220317077 0 IRIDIUM 146 1 43254U 18030F 24110.44039641 .00000914 00000-0 31931-3 0 9993 2 43254 86.3934 260.0250 0001894 88.0939 272.0474 14.34225004317087 0 IRIDIUM 148 1 43255U 18030G 24110.47845665 .00000202 00000-0 65057-4 0 9995 2 43255 86.3938 260.0403 0001915 98.0621 262.0792 14.34216821317130 0 IRIDIUM 142 1 43256U 18030H 24109.46998946 .00000411 00000-0 13962-3 0 9993 2 43256 86.3933 260.3798 0001871 92.0800 268.0610 14.34218883316943 0 IRIDIUM 150 1 43257U 18030J 24110.41503881 .00000935 00000-0 32693-3 0 9994 2 43257 86.3942 260.0756 0001920 72.7597 287.3809 14.34214903317122 0 IRIDIUM 143 1 43258U 18030K 24109.90762198 .00000710 00000-0 24645-3 0 9994 2 43258 86.3941 260.3490 0001791 84.6981 275.4419 14.34223787316961 0 IRIDIUM 161 1 43478U 18047C 24109.90672158 .00000819 00000-0 23742-3 0 9999 2 43478 86.4492 58.3167 0002454 87.5673 272.5808 14.43280952311298 0 IRIDIUM 152 1 43479U 18047D 24110.36873047 .00000877 00000-0 30611-3 0 9999 2 43479 86.3984 57.9821 0002800 73.8058 286.3445 14.34209797309437 0 IRIDIUM 147 1 43480U 18047E 24109.39831698 .00000686 00000-0 23779-3 0 9993 2 43480 86.3972 58.3787 0003824 66.9172 293.2427 14.34215429309288 0 IRIDIUM 110 1 43481U 18047F 24109.89303205 .00000461 00000-0 15740-3 0 9997 2 43481 86.3972 58.2446 0002675 86.3371 273.8131 14.34220360309343 0 IRIDIUM 162 1 43482U 18047G 24110.38573602 .00001242 00000-0 36316-3 0 9994 2 43482 86.4492 58.0168 0002308 86.5943 273.5521 14.43275237311358 0 IRIDIUM 160 1 43569U 18061A 24109.83886904 .00000553 00000-0 19023-3 0 9996 2 43569 86.4020 26.6440 0002350 95.0122 265.1342 14.34217165300235 0 IRIDIUM 166 1 43570U 18061B 24109.72469381 .00000857 00000-0 29874-3 0 9994 2 43570 86.4019 26.6532 0002278 78.6529 281.4923 14.34225070300245 0 IRIDIUM 158 1 43571U 18061C 24110.18137090 -.00000647 00000-0 -23819-3 0 9998 2 43571 86.4017 26.4718 0001964 79.2937 280.8480 14.34215373300289 0 IRIDIUM 165 1 43572U 18061D 24110.27650725 .00000779 00000-0 27116-3 0 9992 2 43572 86.4026 26.4632 0002234 84.4403 275.7048 14.34210736300317 0 IRIDIUM 155 1 43573U 18061E 24109.33145054 .00000751 00000-0 26105-3 0 9999 2 43573 86.4018 26.7659 0002322 80.3578 279.7880 14.34228698300142 0 IRIDIUM 154 1 43574U 18061F 24109.73106081 .00001046 00000-0 36652-3 0 9997 2 43574 86.4021 26.6937 0002125 92.1234 268.0206 14.34225128300256 0 IRIDIUM 163 1 43575U 18061G 24109.71201678 .00000216 00000-0 70015-4 0 9994 2 43575 86.4017 26.6421 0002307 85.6450 274.5009 14.34218380300221 0 IRIDIUM 156 1 43576U 18061H 24110.31456475 .00000752 00000-0 26133-3 0 9996 2 43576 86.4017 26.3967 0002076 82.8271 277.3161 14.34216926300298 0 IRIDIUM 164 1 43577U 18061J 24110.29553355 .00000708 00000-0 24560-3 0 9992 2 43577 86.4022 26.4326 0001894 88.4780 271.6632 14.34214826300342 0 IRIDIUM 159 1 43578U 18061K 24109.70567472 .00000378 00000-0 12791-3 0 9998 2 43578 86.4019 26.6318 0002200 86.9113 273.2334 14.34219680300224 0 IRIDIUM 180 1 43922U 19002A 24110.54238642 .00000536 00000-0 18429-3 0 9995 2 43922 86.3954 323.1985 0002133 89.5096 270.6344 14.34220175275991 0 IRIDIUM 176 1 43923U 19002B 24110.52968173 .00003878 00000-0 61086-3 0 9992 2 43923 86.6091 323.2311 0002461 87.8188 272.3311 14.72258203283210 0 IRIDIUM 168 1 43924U 19002C 24110.53604898 .00000679 00000-0 23543-3 0 9997 2 43924 86.3959 323.2564 0002093 82.8487 277.2947 14.34217898275931 0 IRIDIUM 173 1 43925U 19002D 24110.52336354 .00000463 00000-0 15816-3 0 9991 2 43925 86.3957 323.1830 0002053 89.8172 270.3259 14.34217240275929 0 IRIDIUM 169 1 43926U 19002E 24109.72470176 .00000874 00000-0 27916-3 0 9993 2 43926 86.4269 355.1220 0004334 75.5431 284.6248 14.38611166276723 0 IRIDIUM 172 1 43927U 19002F 24110.09841142 .00000063 00000-0 15562-4 0 9996 2 43927 86.3955 323.3658 0002064 87.9379 272.2053 14.34218813275862 0 IRIDIUM 175 1 43928U 19002G 24110.52389797 .00002769 00000-0 43519-3 0 9995 2 43928 86.1467 299.6815 0002322 84.6710 275.4771 14.72245560283209 0 IRIDIUM 171 1 43929U 19002H 24109.66076951 .00000432 00000-0 14729-3 0 9990 2 43929 86.3966 323.7683 0001982 85.3982 274.7440 14.34220684275796 0 IRIDIUM 170 1 43930U 19002J 24109.65228356 .00002490 00000-0 39093-3 0 9996 2 43930 86.6087 323.6016 0002312 92.5857 267.5625 14.72254250283098 0 IRIDIUM 167 1 43931U 19002K 24110.07303971 .00000220 00000-0 71578-4 0 9996 2 43931 86.3955 323.3924 0002077 86.0756 274.0677 14.34218116275853 0 IRIDIUM 181 1 56726U 23068S 24109.77231783 .00001098 00000-0 31847-3 0 9993 2 56726 86.8691 14.3356 0002136 79.7465 280.3977 14.43578244 48569 0 IRIDIUM 177 1 56727U 23068T 24110.14138092 .00004189 00000-0 54820-3 0 9996 2 56727 86.2006 343.4051 0001952 83.8354 276.3089 14.80188564 49642 0 IRIDIUM 174 1 56728U 23068U 24109.18953105 .00002828 00000-0 36879-3 0 9991 2 56728 86.2009 343.9571 0002689 90.5303 269.6226 14.80217982 49505 0 IRIDIUM 178 1 56729U 23068V 24110.19816559 .00003403 00000-0 44443-3 0 9992 2 56729 86.5831 358.1376 0002727 88.4164 271.7370 14.80218648 49657 0 IRIDIUM 179 1 56730U 23068W 24110.19273323 .00003280 00000-0 42846-3 0 9998 2 56730 86.6838 1.5285 0002899 94.1237 266.0316 14.80210982 49650